World > North America > United States > Ohio   City of Cleveland, OH

Cleveland, Ohio Regional Weather

Lat: 41.48N, Lon: 81.68W
Wx Zone: OHZ011
Warning NWS WEATHER ALERT - (More Info. Click Here) Warning
Feedback

Cleveland, OH Regional Weather

Expires:201911130000;;180007
ASUS41 KCLE 122312
RWRCLE
OHIO REGIONAL WEATHER ROUNDUP
NATIONAL WEATHER SERVICE WILMINGTON, OH
600 PM EST TUE NOV 12 2019

NOTE: "FAIR" INDICATES FEW OR NO CLOUDS BELOW 12,000 FEET WITH NO
SIGNIFICANT WEATHER AND/OR OBSTRUCTIONS TO VISIBILITY.


OHZ009>014-019>023-028>033-038-089-130000-
   NORTHEAST OHIO
  
CITY           SKY/WX    TMP DP  RH WIND       PRES   REMARKS
CLE-HOPKINS    CLOUDY    26  11  52 NW8       30.31R WCI  18          
CLE-LAKEFRONT  CLOUDY    28  11  48 W21G28    30.28R WCI  15          
CUY CO. ARPT   MOCLDY    23  12  63 NW13      30.26R WCI  11          
LORAIN-ELYRIA  LGT SNOW  22  12  65 W10       30.31R WCI  11          
ASHTABULA      CLOUDY    23  12  62 NW7       30.25R WCI  15          
AKRON-CANTON   FLURRIES  20  14  77 W10       30.27R WCI   9          
WOOSTER        FAIR      18  12  77 W6        30.30R WCI  10          
MANSFIELD      FAIR      18  12  77 W5        30.30R WCI  11          
YOUNGSTOWN     FAIR      20  12  71 W8        30.23R WCI  10          
$$
 

SKY/WX - Weather  TMP - Temperature  DP - Dew Point  RH - Relative Humidity
WIND - Wind Direction/Speed PRES - Barometric Pressure VSB - Visibility
WCI - Wind Chill Index E13G22 Wind - East Wind 13 mph/Gusts of 22 mph